Weather Roundup
Issued by NWS

Home | Current Version | Previous Version | Text Only | Print | Product List | Glossary On
Versions: 1 2 3 4 5 6 7 8 9 10 11 12 13 14 15 16 17 18 19 20 21 22 23 24 25 26 27 28 29 30 31 32 33 34 35 36 37 38 39 40 41 42 43 44 45 46 47 48 49 50
000
NZUS93 KARX 020010
HRRWXR

CURRENT HOURLY OBSERVATIONS ACROSS
MUCH OF THE UPPER MISSISSIPPI VALLEY
NATIONAL WEATHER SERVICE LA CROSSE WI
700 PM CDT TUE SEP 01 2015


...SOUTHEAST MINNESOTA...


CITY           SKY/WX    TMP DP  RH WIND       PRES   REMARKS
ROCHESTER      MOCLDY    78  74  87 S7        29.95R
ROCHESTER/MAYO FAIR      82  73  74 SE5       29.93F
WINONA         MOCLDY    82  70  65 SW5       29.92S
AUSTIN         MOCLDY    81  72  74 SW7       29.94R
ALBERT LEA     MOCLDY    82  72  69 S7        29.94R
DODGE CENTER   MOCLDY    79  73  83 CALM      29.94S
PRESTON        MOCLDY    80  72  78 S5        29.95S
OWATONNA       CLOUDY    81  72  74 S5        29.92S
FARIBAULT      MOCLDY    81  73  78 S3        29.92S
$$

...ELSEWHERE IN MINNESOTA...


CITY           SKY/WX    TMP DP  RH WIND       PRES   REMARKS
MINNEAPOLIS    MOCLDY    86  73  65 S9        29.89R HX  93
INTNL FALLS    CLEAR     77  56  48 SE3       29.89S
DULUTH         MOCLDY    79  68  69 SW6       29.92S
RED WING       MOCLDY    84  72  65 SW6       29.89R
REDWOOD FALLS  LGT RAIN  80  73  79 CALM      29.88R
MANKATO        MOCLDY    81  72  74 S6        29.90S
WORTHINGTON    MOCLDY    79  68  69 S13       29.90S
FAIRMONT       MOCLDY    81  70  69 S7        29.91S
$$

...SOUTHWEST WISCONSIN...


CITY           SKY/WX    TMP DP  RH WIND       PRES   REMARKS
LA CROSSE      MOCLDY    86  73  65 S6        29.91S HX  93
PRAIRIE DU CHI PTCLDY    84  71  65 CALM      29.93F
BOSCOBEL       PTCLDY    85  73  67 SW5       29.94S HX  91
LONE ROCK      CLEAR     84  73  69 SW5       29.95S HX  90
PLATTEVILLE    PTCLDY    81  75  82 SW7       29.97S
FORT MC COY    PTCLDY    83  69  63 S6        29.94S
CAMP DOUGLAS   MOCLDY    82  77  83 S6        29.94S HX  91
VIROQUA          N/A     80  73  79 S5        29.97S
WIS DELLS      CLEAR     82  69  66 SW7       29.95F
$$

...ELSEWHERE IN WISCONSIN...


CITY           SKY/WX    TMP DP  RH WIND       PRES   REMARKS
MILWAUKEE      CLEAR     85  70  60 SW7       29.97R
MADISON        PTCLDY    84  70  62 SW5       29.95S
GREEN BAY      CLEAR     81  71  71 S5        29.93S
EAU CLAIRE     CLOUDY    84  74  71 CALM      29.90S HX  91
BLACK RVR FLS  FAIR      83  72  67 CALM      29.92S
MEDFORD        MOCLDY    78  73  85 CALM      29.95S
WAUSAU         MOCLDY    81  71  71 SW5       29.93S
WIS RAPIDS     PTCLDY    81  70  69 S3        29.95S
MARSHFIELD     PTCLDY    81  71  71 SW5       29.95R
RICE LAKE      CLOUDY    77  73  87 CALM      29.94S
$$

...NORTHEAST IOWA...


CITY           SKY/WX    TMP DP  RH WIND       PRES   REMARKS
DECORAH        CLOUDY    81  75  83 S5        29.95S
MASON CITY     MOCLDY    80  74  81 S5        29.96R
CHARLES CITY   MOCLDY    82  77  83 S7        29.96R HX  91
OELWEIN        CLOUDY    82  75  78 S6        29.97S
$$

...ELSEWHERE IN IOWA...


CITY           SKY/WX    TMP DP  RH WIND       PRES   REMARKS
DES MOINES     MOCLDY    85  71  63 S7        29.95R HX  90
IOWA CITY      CLEAR     84  72  67 S5        29.98R
FORT DODGE     CLOUDY    82  72  69 S8        29.94S
$$

...NORTHERN ILLINOIS...


CITY           SKY/WX    TMP DP  RH WIND       PRES   REMARKS
CHICAGO-OHARE  CLEAR     85  72  65 SW9       29.99S HX  91
CHICAGO-MIDWAY PTCLDY    87  71  58 S10       30.00S HX  93
MOLINE         CLEAR     85  72  65 S3        29.98R HX  91
ROCKFORD       PTCLDY    83  72  69 SW5       29.99S
PEORIA         CLEAR     88  68  51 SW6       30.01S HX  91
$$

NOTE: "FAIR" INDICATES FEW OR NO CLOUDS BELOW 12,000 FEET WITH NO
SIGNIFICANT WEATHER AND/OR OBSTRUCTIONS TO VISIBILITY. WIND
SPEEDS ARE IN MILES-PER-HOUR.



USA.gov is the U.S. government's official web portal to all federal, state and local government web resources and services.